TimeEDT,TemperatureF,Dew PointF,Humidity,Sea Level PressureIn,VisibilityMPH,Wind Direction,Wind SpeedMPH,Gust SpeedMPH,PrecipitationIn,Events,Conditions,WindDirDegrees,DateUTC
12:00 AM,66.2,64.4,94,29.86,6.0,SW,5.8,-,N/A,,Overcast,220,2013-09-13 04:00:00
12:53 AM,66.9,64.0,90,29.81,7.0,West,4.6,-,N/A,,Overcast,270,2013-09-13 04:53:00
1:16 AM,66.2,64.4,94,29.84,5.0,SW,4.6,-,0.01,Rain,Rain,230,2013-09-13 05:16:00
1:31 AM,66.2,64.4,94,29.84,5.0,West,5.8,-,0.01,Rain,Light Rain,270,2013-09-13 05:31:00
1:53 AM,64.9,57.0,75,29.80,8.0,WSW,3.5,-,0.02,Rain,Light Rain,240,2013-09-13 05:53:00
2:43 AM,62.6,57.2,82,29.85,6.0,North,10.4,17.3,0.02,Rain,Light Rain,10,2013-09-13 06:43:00
2:50 AM,62.6,57.2,82,29.85,3.0,North,9.2,-,0.06,Rain,Heavy Rain,360,2013-09-13 06:50:00
2:53 AM,62.1,57.0,84,29.81,2.5,NE,8.1,-,0.08,Rain,Heavy Rain,40,2013-09-13 06:53:00
3:07 AM,62.6,57.2,82,29.85,4.0,Calm,Calm,-,0.04,Rain,Rain,0,2013-09-13 07:07:00
3:31 AM,62.6,57.2,82,29.85,2.5,North,13.8,27.6,0.15,Rain,Heavy Rain,10,2013-09-13 07:31:00
3:34 AM,60.8,55.4,82,29.85,3.0,North,15.0,27.6,0.16,Rain,Heavy Rain,10,2013-09-13 07:34:00
3:53 AM,59.0,55.0,87,29.82,10.0,NNE,10.4,-,0.17,Rain,Light Rain,20,2013-09-13 07:53:00
4:53 AM,59.0,55.0,87,29.83,10.0,WNW,3.5,-,0.00,,Overcast,290,2013-09-13 08:53:00
5:53 AM,57.9,55.9,93,29.83,10.0,Calm,Calm,-,N/A,,Mostly Cloudy,0,2013-09-13 09:53:00
6:53 AM,57.9,55.0,90,29.86,10.0,NW,5.8,-,N/A,,Overcast,320,2013-09-13 10:53:00
7:53 AM,57.9,55.0,90,29.89,10.0,NNW,5.8,-,N/A,,Overcast,330,2013-09-13 11:53:00
7:59 AM,57.2,55.4,94,29.92,10.0,NW,4.6,-,N/A,,Overcast,320,2013-09-13 11:59:00
8:11 AM,57.2,55.4,94,29.92,10.0,NNW,3.5,-,N/A,,Overcast,330,2013-09-13 12:11:00
8:21 AM,57.2,53.6,88,29.92,10.0,NW,5.8,-,N/A,,Overcast,320,2013-09-13 12:21:00
8:53 AM,59.0,54.0,83,29.89,10.0,NW,3.5,-,N/A,,Overcast,310,2013-09-13 12:53:00
9:53 AM,60.1,55.0,83,29.90,10.0,NNW,4.6,-,N/A,,Overcast,330,2013-09-13 13:53:00
10:53 AM,62.1,54.0,75,29.89,10.0,Calm,Calm,-,N/A,,Overcast,0,2013-09-13 14:53:00
11:53 AM,64.0,54.0,70,29.89,10.0,WNW,6.9,-,N/A,,Overcast,290,2013-09-13 15:53:00
12:53 PM,66.9,54.0,63,29.88,10.0,NW,15.0,21.9,N/A,,Mostly Cloudy,310,2013-09-13 16:53:00
1:00 PM,66.2,53.6,64,29.92,10.0,WNW,10.4,18.4,N/A,,Scattered Clouds,290,2013-09-13 17:00:00
1:53 PM,66.0,51.1,59,29.89,10.0,WNW,12.7,-,N/A,,Mostly Cloudy,300,2013-09-13 17:53:00
2:53 PM,69.1,51.1,53,29.88,10.0,West,15.0,19.6,N/A,,Scattered Clouds,280,2013-09-13 18:53:00
3:53 PM,68.0,48.0,49,29.88,10.0,West,10.4,20.7,N/A,,Clear,280,2013-09-13 19:53:00
4:53 PM,63.0,51.1,65,29.90,10.0,North,13.8,23.0,N/A,,Mostly Cloudy,350,2013-09-13 20:53:00
5:53 PM,61.0,51.1,70,29.93,10.0,NW,8.1,-,0.00,,Overcast,320,2013-09-13 21:53:00
6:53 PM,60.1,48.9,67,29.95,10.0,NNW,6.9,-,N/A,,Overcast,340,2013-09-13 22:53:00
7:53 PM,59.0,50.0,72,29.97,10.0,NW,6.9,-,N/A,,Overcast,310,2013-09-13 23:53:00
8:32 PM,57.2,50.0,77,30.01,10.0,NW,8.1,-,N/A,,Mostly Cloudy,320,2013-09-14 00:32:00
8:53 PM,57.0,48.9,74,30.00,10.0,NNW,8.1,-,N/A,,Overcast,340,2013-09-14 00:53:00
9:53 PM,55.0,46.9,74,30.01,10.0,North,3.5,-,N/A,,Mostly Cloudy,360,2013-09-14 01:53:00
10:53 PM,53.1,46.0,77,30.02,10.0,North,5.8,-,N/A,,Clear,350,2013-09-14 02:53:00
11:53 PM,51.1,46.0,83,30.02,10.0,Calm,Calm,-,N/A,,Clear,0,2013-09-14 03:53:00